星链-2069 (STARLINK-2069 )

导读 | 星芒AI

STARLINK-2069 是 SpaceX 星链计划中的一颗低轨通信卫星,属于第二代星链卫星群。该卫星采用先进设计,具备更高带宽和更强信号覆盖能力,旨在提升全球互联网接入速度与稳定性。它运行在约 550 公里的轨道高度,支持高速、低延迟的互联网服务,尤其服务于偏远和网络基础设施薄弱的地区。作为星链系统的重要组成部分,STARLINK-2069 有助于推动全球数字化进程,促进远程教育、医疗和经济发展。

基本信息
目录编号:
47359
目录名称:
STARLINK-2069
国际标识:
2021-005L
轨道中心:
EARTH
卫星名称:
星链-2069
卫星全名:
星链-2069 (STARLINK-2069 )
卫星状态:
在轨 (已飞行1791 天)
发射日期:
2021-01-20 UTC
国别 :
美国 (US)
星等 :
--
轨道信息
数据来源 国际轨道数据
星历时间: 2025-12-16T08:00:03+0800
16小时前
查看轨道信息
半长轴: 6671.623km
偏心率: 0.0008428
轨道倾角: 53.007°
近地点辐角 88.774°
升交点赤经 325.135°
平近点角 244.423°
近地点: 287.865km
远地点: 299.111km
周期: 90.387分钟
每日圈数: 15.93146
详细信息
固有亮度:
5
最大亮度:
2.5
卫星平台:
Starlink V1.0
覆盖范围:
全球
运营商:
太空探索技术公司
运营商所在国:
美国
制造商(研发单位):
太空探索技术公司
制造商所在国:
美国
使用方式:
暂无
卫星简介
星链(Starlink)计划是由太空探索技术公司(SpaceX)提出的一个巨型低轨卫星互联网星座项目,计划在2019年至2024年间在太空搭建由约1.2万颗卫星组成的“星链”网络,其中1584颗将部署在地球上空550千米处的近地轨道,并从2020年开始工作。该卫星仍在工作。
2D轨道图
3D轨道图
轨道高度分析图
轨道倾角分析图
轨道综合分析图
查看轨道综合分析图